Home   Weather   Taipei   Past weeks
Flag for Taiwan

Past Weather in Taipei, Taiwan — Yesterday and Last 2 Weeks

Now
93 °F

Passing clouds.


Feels Like: 110 °F
Forecast: 95 / 83 °F
Wind: 7 mph from East

Location: Sungshan / Taipei

Current Time: Jul 16, 2019 at 11:03:30 am

Latest Report: Jul 16, 2019 at 10:00 am


Visibility: N/A

Pressure: 29.68 "Hg

Humidity: 63%

Dew Point: 79 °F

Location of TaipeiLocation

Past Weather in Taipei — Graph

°F

Taipei Temperature Yesterday

Maximum temperature yesterday: 97 °F (at 11:00 am)
Minimum temperature yesterday: 81 °F (at 5:00 am)
Average temperature yesterday: 89 °F

High & Low Weather Summary for the Past Weeks

 TemperatureHumidityPressure
High99 °F (Jul 7, 12:30 pm)100% (Jul 2, 3:40 pm)29.83 "Hg (Jul 2, 3:40 pm)
Low77 °F (Jul 3, 12:00 am)47% (Jul 9, 3:10 pm)29.53 "Hg (Jul 2, 3:00 am)
Average88 °F72%29.66 "Hg
* Reported Jul 1 10:00 am — Jul 16 10:00 am, Taipei. Weather by CustomWeather, © 2019

Note: Actual official high and low records may vary slightly from our data, if they occured in-between our weather recording intervals... More about our weather records

Advertising

Taipei Weather History for the Previous 24 Hours

Scroll right to see more
 ConditionsComfort  
Time TempWeatherWind HumidityBarometerVisibility
10:00 am
Tue, Jul 16
93 °FPassing clouds.7 mph63%29.68 "HgN/A
9:30 am93 °FPassing clouds.7 mph63%29.68 "HgN/A
9:00 am91 °FScattered clouds.5 mph67%29.71 "HgN/A
8:30 am91 °FScattered clouds.5 mph67%29.71 "HgN/A
8:00 am90 °FScattered clouds.3 mph71%29.71 "HgN/A
7:30 am88 °FScattered clouds.2 mph70%29.71 "HgN/A
7:00 am88 °FScattered clouds.3 mph70%29.71 "HgN/A
6:30 am84 °FScattered clouds.3 mph74%29.71 "HgN/A
6:00 am84 °FScattered clouds.1 mph74%29.74 "HgN/A
5:00 am82 °FPassing clouds.3 mph79%29.71 "HgN/A
4:00 am84 °FPassing clouds.6 mph79%29.71 "HgN/A
3:00 am84 °FPassing clouds.3 mph79%29.68 "HgN/A
2:00 am84 °FPassing clouds.2 mph79%29.68 "HgN/A
1:00 am84 °FPassing clouds.3 mph74%29.68 "HgN/A
12:00 am84 °FPassing clouds.5 mph74%29.71 "HgN/A
11:30 pm
Mon, Jul 15
84 °FPassing clouds.5 mph74%29.71 "HgN/A
11:00 pm84 °FPassing clouds.6 mph74%29.71 "HgN/A
10:30 pm84 °FPassing clouds.8 mph74%29.71 "HgN/A
10:00 pm86 °FPassing clouds.10 mph75%29.68 "HgN/A
9:30 pm84 °FPassing clouds.12 mph79%29.68 "HgN/A
9:00 pm84 °FPassing clouds.10 mph79%29.68 "HgN/A
8:30 pm86 °FPassing clouds.8 mph75%29.68 "HgN/A
7:30 pm86 °FPartly cloudy.9 mph75%29.68 "HgN/A
7:00 pm86 °FPassing clouds.10 mph75%29.68 "HgN/A
6:30 pm88 °FBroken clouds.10 mph70%29.65 "HgN/A
6:00 pm88 °FBroken clouds.12 mph75%29.68 "HgN/A
5:30 pm90 °FBroken clouds.12 mph71%29.65 "HgN/A
5:00 pm90 °FPartly sunny.10 mph71%29.65 "HgN/A
4:30 pm90 °FPartly sunny.9 mph71%29.65 "HgN/A
4:00 pm90 °FPartly sunny.12 mph71%29.65 "HgN/A
3:30 pm91 °FPartly sunny.9 mph63%29.65 "HgN/A
3:00 pm91 °FPartly sunny.12 mph67%29.65 "HgN/A
2:32 pm93 °FBroken clouds.12 mph63%29.65 "HgN/A
2:00 pm93 °FBroken clouds.8 mph63%29.65 "HgN/A
1:30 pm95 °FScattered clouds.8 mph63%29.65 "HgN/A
1:00 pm93 °FScattered clouds.7 mph63%29.65 "HgN/A
12:30 pm95 °FPartly sunny.5 mph56%29.65 "HgN/A
12:00 pm97 °FScattered clouds.5 mph56%29.68 "HgN/A
11:30 am95 °FScattered clouds.5 mph60%29.68 "HgN/A
11:00 am97 °FScattered clouds.2 mph56%29.68 "HgN/A
Weather by CustomWeather, © 2019

See weather overview

LIVE PARTIAL LUNAR ECLIPSE – Watch the eclipse as it happens